Date String (YYYY-MM-DD hh:mm:ss) UTC,Instrument flags,Ambient pressure (hPa),Sample flow (lpm),Bypass flow (lpm),Sample temperature (°C),Ambient temperature (°C),ASC tube jacket temperature (°C),LED temperature (°C),Box temperature (°C),Sample RH (%),Span deviation,Mass concentration (μg/m³),Mass concentration (μg/m³),Mass concentration (μg/m³)
DateTimeUTC,F1_M11,P_M11,Q1_M11,Q2_M11,T1_M11,T2_M11,T3_M11,T4_M11,T5_M11,U1_M11,ZSPAN_M11,X0_M11,X2_M11,X1_M11
2021-10-04 16:00:00,,0833.5,5.00,0.00,30.1,26.6,00.0,39.3,31.4,14.8,0001.4,0008.45,0003.66,0003.16
2021-10-04 16:01:00,,0833.5,5.00,0.00,30.0,27.0,00.0,39.3,31.5,14.9,0001.2,0008.12,0003.65,0003.16
2021-10-04 16:02:00,,0833.5,4.99,0.00,30.0,27.4,00.0,39.2,31.5,15.0,0001.4,0008.08,0003.63,0003.16
2021-10-04 16:03:00,,0833.5,5.01,0.00,30.0,27.8,00.0,39.2,31.6,14.6,0001.6,0008.21,0003.67,0003.16
2021-10-04 16:04:00,,0833.5,5.00,0.00,30.0,28.1,00.0,39.2,31.6,14.8,0001.7,0008.31,0003.70,0003.16
2021-10-04 16:05:00,,0833.5,4.99,0.00,30.0,28.3,00.0,39.2,31.7,15.0,0001.6,0008.34,0003.72,0003.16
2021-10-04 16:06:00,,0833.5,4.99,0.00,30.0,28.5,00.0,39.1,31.8,14.7,0001.4,0008.69,0003.75,0003.16
2021-10-04 16:07:00,,0833.5,5.01,0.00,30.0,28.7,00.0,39.1,31.8,14.6,0001.2,0009.60,0003.77,0003.17
2021-10-04 16:08:00,,0833.5,4.99,0.00,30.1,28.9,00.0,39.2,31.9,14.6,0001.2,0009.68,0003.76,0003.16
2021-10-04 16:09:00,,0833.4,4.99,0.00,30.1,29.0,00.0,39.2,31.9,14.6,0001.0,0009.78,0003.76,0003.15
2021-10-04 16:10:00,,0833.4,5.00,0.00,30.1,29.1,00.0,39.2,31.9,14.7,0000.0,0009.72,0003.74,0003.15
2021-10-04 16:11:00,,0833.4,5.00,0.00,30.2,29.2,00.0,39.2,32.0,14.7,0000.4,0009.88,0003.74,0003.16
2021-10-04 16:12:00,,0833.4,5.01,0.00,30.2,29.3,00.0,39.2,32.0,14.6,0000.0,0009.93,0003.74,0003.17
2021-10-04 16:13:00,,0833.4,5.00,0.00,30.2,29.3,00.0,39.2,32.0,14.6,0000.0,0009.88,0003.78,0003.18
2021-10-04 16:14:00,,0833.4,5.01,0.00,30.3,29.4,00.0,39.2,32.1,14.5,0000.0,0009.92,0003.82,0003.19
2021-10-04 16:15:00,,0833.5,5.00,0.00,30.3,29.2,00.0,39.2,32.0,14.5,0000.0,0010.31,0003.79,0003.21
2021-10-04 16:16:00,,0833.4,5.00,0.00,30.2,27.3,00.0,39.2,31.6,14.5,0000.0,0011.39,0003.79,0003.22
2021-10-04 16:17:00,,0833.5,4.99,0.00,30.1,26.3,00.0,39.2,31.3,14.7,0000.0,0011.27,0003.77,0003.23
2021-10-04 16:18:00,,0833.4,5.00,0.00,30.0,26.7,00.0,39.2,31.4,15.0,0000.0,0010.11,0003.76,0003.23
2021-10-04 16:19:00,,0833.4,5.00,0.00,29.9,27.1,00.0,39.1,31.4,14.9,0000.0,0009.98,0003.77,0003.24
2021-10-04 16:20:00,,0833.4,5.00,0.00,29.9,27.5,00.0,39.1,31.5,14.6,0000.0,0009.82,0003.78,0003.24
2021-10-04 16:21:00,,0833.4,4.99,0.00,29.9,27.9,00.0,39.1,31.6,14.5,0000.0,0009.67,0003.79,0003.24
2021-10-04 16:22:00,,0833.4,5.01,0.00,29.9,28.2,00.0,39.0,31.6,14.4,0000.0,0009.37,0003.77,0003.23
2021-10-04 16:23:00,,0833.4,5.00,0.00,29.9,28.4,00.0,39.0,31.7,14.4,0000.0,0009.28,0003.77,0003.24
2021-10-04 16:24:00,,0833.5,4.99,0.00,30.0,28.6,00.0,39.0,31.7,14.0,0000.0,0008.97,0003.76,0003.23
2021-10-04 16:25:00,,0833.5,4.99,0.00,30.0,28.8,00.0,39.0,31.8,13.9,0000.0,0008.90,0003.73,0003.23
2021-10-04 16:26:00,,0833.4,5.00,0.00,30.0,28.9,00.0,39.1,31.9,14.1,0000.0,0008.73,0003.72,0003.23
2021-10-04 16:27:00,,0833.5,5.00,0.00,30.1,29.0,00.0,39.1,31.9,14.4,0000.0,0007.61,0003.70,0003.23
2021-10-04 16:28:00,,0833.5,5.00,0.00,30.1,29.1,00.0,39.1,31.9,14.6,0000.0,0007.27,0003.71,0003.23
2021-10-04 16:29:00,,0833.5,5.00,0.00,30.1,29.2,00.0,39.1,32.0,14.3,0000.0,0007.38,0003.70,0003.23
2021-10-04 16:30:00,,0833.5,5.00,0.00,30.2,29.3,00.0,39.1,32.0,14.3,0000.0,0008.06,0003.75,0003.22
2021-10-04 16:31:00,,0833.5,5.00,0.00,30.2,29.1,00.0,39.1,32.0,14.2,0000.0,0008.17,0003.75,0003.23
2021-10-04 16:32:00,,0833.4,4.99,0.00,30.1,27.3,00.0,39.1,31.5,13.9,0000.0,0008.11,0003.73,0003.24
2021-10-04 16:33:00,,0833.4,5.01,0.00,30.0,26.3,00.0,39.1,31.2,13.9,0000.0,0008.22,0003.78,0003.26
2021-10-04 16:34:00,,0833.4,5.00,0.00,29.9,26.7,00.0,39.1,31.3,13.9,0000.4,0008.24,0003.78,0003.25
2021-10-04 16:35:00,,0833.4,5.00,0.00,29.8,27.1,00.0,39.0,31.3,13.9,0001.7,0008.21,0003.79,0003.26
2021-10-04 16:36:00,,0833.5,4.99,0.00,29.8,27.5,00.0,39.0,31.4,14.5,0002.2,0008.03,0003.77,0003.26
2021-10-04 16:37:00,,0833.5,5.01,0.00,29.8,27.9,00.0,39.0,31.5,14.4,0002.6,0007.94,0003.78,0003.26
2021-10-04 16:38:00,,0833.5,5.00,0.00,29.8,28.2,00.0,39.0,31.6,14.0,0003.1,0008.63,0003.77,0003.25
2021-10-04 16:39:00,,0833.5,5.00,0.00,29.9,28.4,00.0,39.0,31.6,13.9,0003.5,0008.99,0003.77,0003.25
2021-10-04 16:40:00,,0833.5,5.00,0.00,29.9,28.6,00.0,39.0,31.7,14.5,0003.4,0008.85,0003.75,0003.24
2021-10-04 16:41:00,,0833.5,5.01,0.00,30.0,28.8,00.0,39.0,31.8,14.7,0003.1,0008.16,0003.70,0003.25
2021-10-04 16:42:00,,0833.5,5.00,0.00,30.0,28.9,00.0,39.0,31.8,14.7,0002.8,0008.02,0003.69,0003.25
2021-10-04 16:43:00,,0833.5,5.00,0.00,30.0,29.0,00.0,39.0,31.9,14.1,0002.5,0008.14,0003.72,0003.25
2021-10-04 16:44:00,,0833.5,5.00,0.00,30.1,29.1,00.0,39.0,31.9,13.9,0002.1,0008.03,0003.69,0003.25
2021-10-04 16:45:00,,0833.5,4.99,0.00,30.1,29.2,00.0,39.0,32.0,13.8,0002.2,0008.17,0003.73,0003.25
2021-10-04 16:46:00,,0833.5,5.00,0.00,30.1,29.3,00.0,39.1,32.0,13.6,0000.0,0008.23,0003.72,0003.25
2021-10-04 16:47:00,,0833.4,5.00,0.00,30.2,29.1,00.0,39.1,32.0,13.6,0000.0,0008.92,0003.72,0003.25
2021-10-04 16:48:00,,0833.4,5.00,0.00,30.1,27.3,00.0,39.1,31.5,13.5,0000.0,0008.92,0003.71,0003.25
2021-10-04 16:49:00,,0833.4,5.01,0.00,29.9,26.3,00.0,39.1,31.2,13.9,0000.0,0008.42,0003.72,0003.26
2021-10-04 16:50:00,,0833.4,5.00,0.00,29.9,26.7,00.0,39.0,31.3,14.1,0000.0,0009.28,0003.73,0003.26
2021-10-04 16:51:00,,0833.4,4.99,0.00,29.8,27.1,00.0,39.0,31.3,13.8,0000.0,0009.69,0003.77,0003.27
2021-10-04 16:52:00,,0833.4,5.01,0.00,29.8,27.5,00.0,38.9,31.4,14.5,0000.0,0009.57,0003.77,0003.27
2021-10-04 16:53:00,,0833.4,5.00,0.00,29.8,27.9,00.0,38.9,31.5,14.9,0000.0,0009.53,0003.76,0003.27
2021-10-04 16:54:00,,0833.4,4.99,0.00,29.8,28.2,00.0,38.9,31.5,14.8,0000.0,0010.85,0003.75,0003.28
2021-10-04 16:55:00,,0833.4,5.00,0.00,29.9,28.4,00.0,38.9,31.7,14.8,0000.0,0011.58,0003.76,0003.27
2021-10-04 16:56:00,,0833.5,5.00,0.00,29.9,28.6,00.0,38.9,31.7,14.9,0000.0,0011.77,0003.75,0003.27
2021-10-04 16:57:00,,0833.4,4.99,0.00,29.9,28.8,00.0,38.9,31.8,14.7,0000.0,0012.04,0003.79,0003.27
2021-10-04 16:58:00,,0833.4,5.01,0.00,30.0,28.9,00.0,38.9,31.8,14.5,0000.0,0011.38,0003.80,0003.27
2021-10-04 16:59:00,,0833.5,5.00,0.00,30.0,29.0,00.0,38.9,31.9,14.4,0000.0,0011.20,0003.79,0003.28
